TimeEST,TemperatureF,Dew PointF,Humidity,Sea Level PressureIn,VisibilityMPH,Wind Direction,Wind SpeedMPH,Gust SpeedMPH,PrecipitationIn,Events,Conditions,WindDirDegrees,DateUTC
12:54 AM,37.0,35.1,93,30.01,4.0,Calm,Calm,-,0.00,Rain,Light Rain,0,2012-12-08 05:54:00
1:54 AM,37.0,35.1,93,29.99,3.0,Calm,Calm,-,0.02,Rain,Light Rain,0,2012-12-08 06:54:00
2:34 AM,37.4,35.6,93,29.97,2.5,Calm,Calm,-,0.03,Rain,Light Rain,0,2012-12-08 07:34:00
2:54 AM,37.0,36.0,96,29.98,2.0,Calm,Calm,-,0.06,Rain,Light Rain,0,2012-12-08 07:54:00
3:01 AM,37.4,35.6,93,29.96,2.0,Calm,Calm,-,0.01,Rain,Rain,0,2012-12-08 08:01:00
3:13 AM,37.4,35.6,93,29.96,2.5,NNE,3.5,-,0.02,Rain,Light Rain,20,2012-12-08 08:13:00
3:22 AM,37.4,35.6,93,29.96,3.0,North,3.5,-,0.02,Rain,Light Rain,360,2012-12-08 08:22:00
3:33 AM,37.4,35.6,93,29.96,2.5,Calm,Calm,-,0.04,Rain,Light Rain,0,2012-12-08 08:33:00
3:42 AM,37.4,35.6,93,29.95,2.0,Calm,Calm,-,0.05,Rain,Light Rain,0,2012-12-08 08:42:00
3:54 AM,37.0,36.0,96,29.96,2.5,Calm,Calm,-,0.05,Rain,Light Rain,0,2012-12-08 08:54:00
4:06 AM,37.4,35.6,93,29.95,2.0,Calm,Calm,-,0.01,Rain,Light Rain,0,2012-12-08 09:06:00
4:13 AM,37.4,35.6,93,29.94,2.0,Calm,Calm,-,0.01,Rain,Light Rain,0,2012-12-08 09:13:00
4:54 AM,37.9,36.0,93,29.94,2.0,Calm,Calm,-,0.02,Rain,Light Rain,0,2012-12-08 09:54:00
5:05 AM,37.4,35.6,93,29.93,1.8,Calm,Calm,-,0.00,,Overcast,0,2012-12-08 10:05:00
5:29 AM,37.4,35.6,93,29.92,1.8,Calm,Calm,-,0.01,,Overcast,0,2012-12-08 10:29:00
5:38 AM,37.4,35.6,93,29.92,2.0,Calm,Calm,-,0.01,,Overcast,0,2012-12-08 10:38:00
6:07 AM,37.4,37.4,100,29.92,1.8,Calm,Calm,-,0.00,,Overcast,0,2012-12-08 11:07:00
6:38 AM,37.4,35.6,93,29.92,2.0,NNW,3.5,-,0.00,,Overcast,340,2012-12-08 11:38:00
6:54 AM,37.9,36.0,93,29.93,2.5,NNW,3.5,-,0.00,,Overcast,340,2012-12-08 11:54:00
7:05 AM,37.4,35.6,93,29.92,3.0,NNW,4.6,-,N/A,,Overcast,330,2012-12-08 12:05:00
7:26 AM,37.4,35.6,93,29.91,4.0,Calm,Calm,-,0.00,Rain,Light Rain,0,2012-12-08 12:26:00
7:52 AM,37.4,35.6,93,29.91,1.8,Calm,Calm,-,0.01,,Overcast,0,2012-12-08 12:52:00
7:53 AM,37.9,36.0,93,29.92,1.8,Calm,Calm,-,0.01,,Overcast,0,2012-12-08 12:53:00
8:12 AM,37.4,35.6,93,29.91,1.0,Calm,Calm,-,N/A,,Overcast,0,2012-12-08 13:12:00
8:22 AM,37.4,35.6,93,29.91,0.8,Calm,Calm,-,N/A,,Overcast,0,2012-12-08 13:22:00
8:40 AM,37.4,37.4,100,29.91,1.0,NNW,3.5,-,N/A,,Overcast,340,2012-12-08 13:40:00
8:54 AM,37.9,37.0,97,29.93,1.0,Calm,Calm,-,N/A,,Overcast,0,2012-12-08 13:54:00
9:05 AM,39.2,37.4,93,29.92,1.2,Calm,Calm,-,N/A,,Overcast,0,2012-12-08 14:05:00
9:19 AM,39.2,37.4,93,29.92,1.0,Calm,Calm,-,N/A,,Overcast,0,2012-12-08 14:19:00
9:54 AM,39.0,37.9,96,29.94,1.2,Calm,Calm,-,N/A,,Overcast,0,2012-12-08 14:54:00
10:15 AM,39.2,37.4,93,29.93,2.0,Calm,Calm,-,N/A,,Overcast,0,2012-12-08 15:15:00
10:32 AM,39.2,39.2,100,29.92,2.0,Calm,Calm,-,N/A,,Overcast,0,2012-12-08 15:32:00
10:49 AM,41.0,39.2,93,29.91,1.8,Calm,Calm,-,N/A,,Overcast,0,2012-12-08 15:49:00
10:54 AM,41.0,39.0,93,29.92,1.8,Calm,Calm,-,N/A,,Overcast,0,2012-12-08 15:54:00
11:01 AM,41.0,39.2,93,29.90,2.0,Calm,Calm,-,N/A,,Overcast,0,2012-12-08 16:01:00
11:13 AM,41.0,39.2,93,29.90,3.0,Calm,Calm,-,N/A,,Overcast,0,2012-12-08 16:13:00
11:54 AM,42.1,39.9,92,29.89,6.0,Calm,Calm,-,N/A,,Overcast,0,2012-12-08 16:54:00
12:10 PM,42.8,39.2,87,29.87,7.0,North,-9999.0,-,N/A,,Overcast,0,2012-12-08 17:10:00
12:54 PM,43.0,39.9,89,29.87,8.0,SW,3.5,-,N/A,,Overcast,220,2012-12-08 17:54:00
1:54 PM,45.0,41.0,86,29.86,10.0,SSW,5.8,-,N/A,,Overcast,200,2012-12-08 18:54:00
2:54 PM,45.0,42.1,90,29.88,10.0,SW,4.6,-,N/A,,Overcast,220,2012-12-08 19:54:00
3:07 PM,44.6,42.8,93,29.87,10.0,SSW,3.5,-,N/A,,Overcast,210,2012-12-08 20:07:00
3:26 PM,46.4,42.8,87,29.87,10.0,SW,6.9,-,N/A,,Overcast,220,2012-12-08 20:26:00
3:54 PM,46.0,42.1,86,29.89,8.0,WSW,4.6,-,N/A,,Overcast,240,2012-12-08 20:54:00
4:54 PM,45.0,43.0,93,29.90,5.0,South,6.9,-,N/A,,Overcast,190,2012-12-08 21:54:00
5:07 PM,44.6,42.8,93,29.89,5.0,SSW,5.8,-,N/A,,Overcast,200,2012-12-08 22:07:00
5:54 PM,45.0,44.1,97,29.91,3.0,WSW,3.5,-,N/A,,Overcast,240,2012-12-08 22:54:00
6:12 PM,44.6,44.6,100,29.91,2.5,SW,3.5,-,N/A,,Overcast,220,2012-12-08 23:12:00
6:28 PM,44.6,44.6,100,29.91,1.5,SW,3.5,-,N/A,,Overcast,230,2012-12-08 23:28:00
6:54 PM,45.0,44.1,97,29.92,1.5,SSW,3.5,-,N/A,,Overcast,200,2012-12-08 23:54:00
7:38 PM,46.4,44.6,93,29.93,1.0,Calm,Calm,-,N/A,,Overcast,0,2012-12-09 00:38:00
7:45 PM,46.4,44.6,93,29.93,0.8,Calm,Calm,-,N/A,,Mist,0,2012-12-09 00:45:00
7:54 PM,46.0,44.1,93,29.94,0.5,SW,3.5,-,N/A,Fog,Fog,220,2012-12-09 00:54:00
8:54 PM,46.0,45.0,96,29.94,0.5,SSW,3.5,-,N/A,Fog,Fog,210,2012-12-09 01:54:00
9:43 PM,46.4,44.6,93,29.95,1.2,SSW,3.5,-,N/A,,Overcast,200,2012-12-09 02:43:00
9:54 PM,46.0,44.1,93,29.96,2.0,Calm,Calm,-,N/A,,Overcast,0,2012-12-09 02:54:00
10:54 PM,46.0,44.1,93,29.98,3.0,SW,5.8,-,N/A,,Overcast,220,2012-12-09 03:54:00
11:33 PM,44.6,44.6,100,29.99,2.5,Calm,Calm,-,N/A,,Overcast,0,2012-12-09 04:33:00
11:49 PM,44.6,44.6,100,29.99,2.0,Calm,Calm,-,N/A,,Overcast,0,2012-12-09 04:49:00
11:54 PM,45.0,43.0,93,29.99,1.5,Calm,Calm,-,N/A,,Mostly Cloudy,0,2012-12-09 04:54:00